カタログに戻る

CZ-3C DEB

運用中HEO
NORAD 39341·DEBRIS·🇨🇳 China

打ち上げ Oct 31, 2010 から Xichang Satellite Launch Center

Loading…

次のパス (今後24時間)

TLE

最新Source: Space-Track

元期: Sep 11, 2026, 11:42 UTC

1 39341U 10057F   26254.48771197  .00000824  00000-0  24502-2 0  9995
2 39341  19.2166 285.0922 6664731 105.6532 332.2670  2.97860476122322

AllMySatでCZ-3C DEBをリアルタイム追跡

Download on the App Store